Orbital elements of COSMOS 970 DEB
| Launched | 20 December 1977 |
| Flight ended | – |
| Launch site | Tyuratam Missile and Space Center, Kazakhstan (Also known as Baikonur Cosmodrome) |
| Owner | Commonwealth of Independent States (former USSR) |
| NORAD ID | 12868 |
| Date fetched |
Epoch osculation |
Inc. [°] |
Ecc. | RA asc node [hr] |
Arg Peri. [°] |
Mean anom [°] |
Mean motion [rev/day] |
Abs. mag |
| Date fetched |
Epoch osculation |
Inc. [°] |
Ecc. | RA asc node [hr] |
Arg Peri. [°] |
Mean anom [°] |
Mean motion [rev/day] |
Abs. mag |
| 2026 May 03 17:57 | 2026 Apr 30 10:39:14 | 65.7632 | 0.00497 | 21.2651 | 115.9489 | 323.4677 | 13.74990 | – |
| 2026 May 02 17:57 | 2026 Apr 30 10:39:14 | 65.7632 | 0.00497 | 21.2651 | 115.9489 | 323.4677 | 13.74990 | – |
| 2026 May 01 17:56 | 2026 Apr 30 10:39:14 | 65.7632 | 0.00497 | 21.2651 | 115.9489 | 323.4677 | 13.74990 | – |
| 2026 Apr 30 17:56 | 2026 Apr 30 10:39:14 | 65.7632 | 0.00497 | 21.2651 | 115.9489 | 323.4677 | 13.74990 | – |
| 2026 Apr 29 17:57 | 2026 Apr 24 09:40:40 | 65.7638 | 0.00497 | 22.2628 | 119.1554 | 323.4677 | 13.74990 | – |
| 2026 Apr 28 17:56 | 2026 Apr 24 09:40:40 | 65.7638 | 0.00497 | 22.2628 | 119.1554 | 323.4677 | 13.74990 | – |
| 2026 Apr 27 17:58 | 2026 Apr 24 09:40:40 | 65.7638 | 0.00497 | 22.2628 | 119.1554 | 323.4677 | 13.74990 | – |
| 2026 Apr 26 17:58 | 2026 Apr 24 09:40:40 | 65.7638 | 0.00497 | 22.2628 | 119.1554 | 323.4677 | 13.74990 | – |
| 2026 Apr 25 17:58 | 2026 Apr 24 09:40:40 | 65.7638 | 0.00497 | 22.2628 | 119.1554 | 323.4677 | 13.74990 | – |
| 2026 Apr 24 17:59 | 2026 Apr 24 09:40:40 | 65.7638 | 0.00497 | 22.2628 | 119.1554 | 323.4677 | 13.74990 | – |
| 2026 Apr 23 17:57 | 2026 Apr 18 14:09:25 | 65.7645 | 0.00496 | 23.2228 | 122.4180 | 323.4677 | 13.74990 | – |
| 2026 Apr 22 17:57 | 2026 Apr 18 14:09:25 | 65.7645 | 0.00496 | 23.2228 | 122.4180 | 323.4677 | 13.74990 | – |
| 2026 Apr 21 17:57 | 2026 Apr 18 14:09:25 | 65.7645 | 0.00496 | 23.2228 | 122.4180 | 323.4677 | 13.74990 | – |
| 2026 Apr 20 17:57 | 2026 Apr 18 14:09:25 | 65.7645 | 0.00496 | 23.2228 | 122.4180 | 323.4677 | 13.74990 | – |
| 2026 Apr 19 17:58 | 2026 Apr 18 14:09:25 | 65.7645 | 0.00496 | 23.2228 | 122.4180 | 323.4677 | 13.74990 | – |
| 2026 Apr 18 17:56 | 2026 Apr 12 16:28:19 | 65.7648 | 0.00494 | 0.1977 | 125.8568 | 323.4677 | 13.74990 | – |
| 2026 Apr 16 17:57 | 2026 Apr 12 16:28:19 | 65.7648 | 0.00494 | 0.1977 | 125.8568 | 323.4677 | 13.74990 | – |
| 2026 Apr 14 17:57 | 2026 Apr 12 16:28:19 | 65.7648 | 0.00494 | 0.1977 | 125.8568 | 323.4677 | 13.74990 | – |
| 2026 Apr 13 17:57 | 2026 Apr 12 16:28:19 | 65.7648 | 0.00494 | 0.1977 | 125.8568 | 323.4677 | 13.74990 | – |
| 2026 Apr 12 17:57 | 2026 Apr 08 14:56:22 | 65.7649 | 0.00493 | 0.8688 | 128.2926 | 323.4677 | 13.74990 | – |
| 2026 Apr 11 17:57 | 2026 Apr 08 14:56:22 | 65.7649 | 0.00493 | 0.8688 | 128.2926 | 323.4677 | 13.74990 | – |
| 2026 Apr 10 17:58 | 2026 Apr 08 14:56:22 | 65.7649 | 0.00493 | 0.8688 | 128.2926 | 323.4677 | 13.74990 | – |
| 2026 Apr 09 18:01 | 2026 Apr 08 14:56:22 | 65.7649 | 0.00493 | 0.8688 | 128.2926 | 323.4677 | 13.74990 | – |
| 2026 Apr 08 17:57 | 2026 Apr 08 14:56:22 | 65.7649 | 0.00493 | 0.8688 | 128.2926 | 323.4677 | 13.74990 | – |
| 2026 Apr 07 17:57 | 2026 Apr 02 05:41:04 | 65.7645 | 0.00493 | 1.9233 | 132.1566 | 323.4677 | 13.74990 | – |
| 2026 Apr 06 17:57 | 2026 Apr 02 05:41:04 | 65.7645 | 0.00493 | 1.9233 | 132.1566 | 323.4677 | 13.74990 | – |